Change the Weather History Date:

Tuesday, May 13, 2014

  Actual Average Record
Temperature  
Mean Temperature 76 °F -  
Max Temperature 89 °F 72 °F 91 °F (2000)
Min Temperature 62 °F 50 °F 38 °F (1990)
Cooling Degree Days 10    
Growing Degree Days 26 (Base 50)    
Moisture  
Dew Point 63 °F    
Average Humidity 79    
Maximum Humidity 100    
Minimum Humidity 40    
Precipitation  
Precipitation 0.11 in - - ()
Sea Level Pressure  
Sea Level Pressure 30.11 in    
Wind  
Wind Speed 3 mph (South)    
Max Wind Speed 17 mph    
Max Gust Speed 24 mph    
Visibility 10 miles    
Events Rain , Thunderstorm    
Averages and records for this station are not official NWS values.
T = Trace of Precipitation, MM = Missing Value Source: NWS Daily Summary

Daily Weather History Graph

Daily Weather History Graph

Search for Another Location

Airport or City:

Trip Planner

Search our weather history database for the weather conditions in past years. The results will help you decide how hot, cold, wet, or windy it might be!

Date:

Astronomy

May. 13, 2014 Rise Set
Actual Time 6:01 AM EDT 8:17 PM EDT
Civil Twilight 5:31 AM EDT 8:47 PM EDT
Nautical Twilight 4:54 AM EDT 9:24 PM EDT
Astronomical Twilight 4:14 AM EDT 10:04 PM EDT
Moon 7:17 PM EDT (5/13) 5:15 AM EDT (5/13)
Length of Visible Light 15h 15m
Length of Day
14h 15m
Waxing Gibbous, 98% of the Moon is Illuminated
May 13
Waxing Gibbous
May 14
Full
May 21
Last Quarter
May 28
New
Jun 5
First Quarter

Hourly Weather History & Observations

Time (EDT) Temp. Heat Index Dew Point Humidity Pressure Visibility Wind Dir Wind Speed Gust Speed Precip Events Conditions
12:15 AM 66.2 °F - 62.6 °F 88% 30.09 in 10.0 mi Calm Calm - N/A   Scattered Clouds
12:35 AM 64.4 °F - 62.6 °F 94% 30.09 in 10.0 mi Calm Calm - N/A   Clear
12:55 AM 62.6 °F - 60.8 °F 94% 30.09 in 10.0 mi Calm Calm - N/A   Clear
1:15 AM 64.4 °F - 62.6 °F 94% 30.09 in 10.0 mi Calm Calm - N/A   Scattered Clouds
1:35 AM 62.6 °F - 60.8 °F 94% 30.08 in 10.0 mi Calm Calm - N/A   Clear
1:55 AM 62.6 °F - 62.6 °F 100% 30.08 in 10.0 mi Calm Calm - N/A   Clear
2:15 AM 64.4 °F - 62.6 °F 94% 30.08 in 10.0 mi WSW 4.6 mph - N/A   Clear
2:35 AM 64.4 °F - 62.6 °F 94% 30.08 in 10.0 mi West 3.5 mph - N/A   Scattered Clouds
2:55 AM 64.4 °F - 62.6 °F 94% 30.08 in 10.0 mi Calm Calm - N/A Thunderstorm Overcast
3:15 AM 64.4 °F - 62.6 °F 94% 30.08 in 10.0 mi Calm Calm - N/A   Mostly Cloudy
3:35 AM 62.6 °F - 62.6 °F 100% 30.08 in 10.0 mi Calm Calm - N/A Thunderstorm Thunderstorm
3:55 AM 64.4 °F - 64.4 °F 100% 30.13 in 10.0 mi NW 13.8 mph 20.7 mph N/A   Mostly Cloudy
4:15 AM 69.8 °F - 60.8 °F 73% 30.12 in 10.0 mi NNW 15.0 mph 21.9 mph N/A   Overcast
4:35 AM 68.0 °F - 62.6 °F 83% 30.12 in 10.0 mi North 4.6 mph - N/A Rain Light Rain
4:55 AM 66.2 °F - 62.6 °F 88% 30.11 in 10.0 mi North 3.5 mph - N/A   Light Drizzle
5:15 AM 64.4 °F - 62.6 °F 94% 30.11 in 10.0 mi Calm Calm - N/A   Mostly Cloudy
5:35 AM 64.4 °F - 62.6 °F 94% 30.10 in 10.0 mi Calm Calm - N/A   Clear
5:55 AM 62.6 °F - 60.8 °F 94% 30.10 in 10.0 mi Calm Calm - N/A   Clear
6:15 AM 62.6 °F - 60.8 °F 94% 30.10 in 10.0 mi Calm Calm - N/A   Clear
6:35 AM 62.6 °F - 60.8 °F 94% 30.10 in 10.0 mi Calm Calm - N/A   Clear
6:55 AM 64.4 °F - 62.6 °F 94% 30.11 in 10.0 mi West 3.5 mph - N/A   Clear
7:15 AM 66.2 °F - 62.6 °F 88% 30.11 in 10.0 mi SW 5.8 mph - N/A   Clear
7:35 AM 68.0 °F - 62.6 °F 83% 30.12 in 10.0 mi SW 4.6 mph - N/A   Clear
7:55 AM 68.0 °F - 62.6 °F 83% 30.12 in 10.0 mi SW 3.5 mph - N/A   Clear
9:15 AM 73.4 °F - 60.8 °F 65% 30.13 in 10.0 mi SSW 4.6 mph - N/A   Clear
9:35 AM 77.0 °F - 60.8 °F 57% 30.13 in 10.0 mi SW 4.6 mph - N/A   Clear
10:15 AM 78.8 °F - 62.6 °F 57% 30.14 in 10.0 mi SW 3.5 mph - N/A   Clear
11:55 AM 84.2 °F 85.0 °F 62.6 °F 48% 30.13 in 10.0 mi ENE 5.8 mph - N/A   Clear
12:35 PM 86.0 °F 87.3 °F 64.4 °F 48% 30.13 in 10.0 mi ENE 4.6 mph - N/A   Clear
1:15 PM 86.0 °F 87.3 °F 64.4 °F 48% 30.12 in 10.0 mi ESE 8.1 mph - N/A   Clear
1:35 PM 86.0 °F 87.3 °F 64.4 °F 48% 30.12 in 10.0 mi East 4.6 mph - N/A   Clear
1:55 PM 86.0 °F 88.2 °F 66.2 °F 51% 30.11 in 10.0 mi ESE 9.2 mph - N/A   Clear
2:15 PM 87.8 °F 89.4 °F 64.4 °F 46% 30.10 in 10.0 mi ESE 9.2 mph - N/A   Clear
2:35 PM 87.8 °F 88.5 °F 62.6 °F 43% 30.09 in 10.0 mi East 6.9 mph - N/A   Clear
2:55 PM 87.8 °F 87.6 °F 60.8 °F 40% 30.08 in 10.0 mi ENE 4.6 mph - N/A   Clear
3:15 PM 89.6 °F 90.1 °F 62.6 °F 40% 30.08 in 10.0 mi East 5.8 mph - N/A   Clear
3:35 PM 87.8 °F 87.6 °F 60.8 °F 40% 30.07 in 10.0 mi SE 6.9 mph - N/A   Clear
3:55 PM 87.8 °F 88.5 °F 62.6 °F 43% 30.07 in 10.0 mi SE 10.4 mph 17.3 mph N/A   Clear
4:15 PM 87.8 °F 88.5 °F 62.6 °F 43% 30.07 in 10.0 mi ESE 10.4 mph - N/A   Clear
4:35 PM 84.2 °F 85.0 °F 62.6 °F 48% 30.07 in 10.0 mi SE 4.6 mph - N/A   Clear
4:55 PM 84.2 °F 85.0 °F 62.6 °F 48% 30.07 in 10.0 mi ESE 6.9 mph - N/A   Clear
5:15 PM 82.4 °F 83.9 °F 64.4 °F 54% 30.08 in 10.0 mi SE 3.5 mph - N/A   Scattered Clouds
5:35 PM 78.8 °F - 59.0 °F 51% 30.11 in 10.0 mi WSW 17.3 mph 24.2 mph N/A   Mostly Cloudy
5:55 PM 69.8 °F - 60.8 °F 73% 30.12 in 7.0 mi NNW 5.8 mph 23.0 mph 0.01 in Rain , Thunderstorm Heavy Thunderstorms and Rain
6:15 PM 66.2 °F - 62.6 °F 88% 30.16 in 10.0 mi SW 8.1 mph - 0.04 in Rain , Thunderstorm Thunderstorms and Rain
6:35 PM 66.2 °F - 62.6 °F 88% 30.13 in 10.0 mi Calm Calm - 0.05 in Rain , Thunderstorm Light Thunderstorms and Rain
6:55 PM 64.4 °F - 62.6 °F 94% 30.13 in 10.0 mi SSW 5.8 mph - 0.05 in Rain , Thunderstorm Thunderstorms and Rain
7:15 PM 66.2 °F - 64.4 °F 94% 30.11 in 7.0 mi SSW 8.1 mph - 0.01 in Rain Light Rain
7:35 PM 66.2 °F - 64.4 °F 94% 30.12 in 7.0 mi Calm Calm - 0.02 in Rain Rain
7:55 PM 66.2 °F - 64.4 °F 94% 30.12 in 7.0 mi SSE 3.5 mph - 0.03 in Rain Rain
8:15 PM 66.2 °F - 64.4 °F 94% 30.12 in 5.0 mi South 3.5 mph - 0.02 in Rain Light Rain
8:35 PM 66.2 °F - 64.4 °F 94% 30.12 in 10.0 mi SSW 6.9 mph - 0.02 in Rain , Thunderstorm Light Thunderstorms and Rain
8:55 PM 66.2 °F - 64.4 °F 94% 30.15 in 10.0 mi South 5.8 mph - 0.02 in Rain Light Rain
9:15 PM 66.2 °F - 64.4 °F 94% 30.15 in 10.0 mi SSE 3.5 mph - N/A Rain Light Rain
9:35 PM 66.2 °F - 64.4 °F 94% 30.13 in 10.0 mi Calm Calm - N/A   Clear
9:55 PM 64.4 °F - 64.4 °F 100% 30.13 in 10.0 mi West 3.5 mph - N/A   Clear
10:15 PM 66.2 °F - 64.4 °F 94% 30.15 in 10.0 mi SE 5.8 mph - N/A   Clear
10:35 PM 64.4 °F - 64.4 °F 100% 30.15 in 10.0 mi Calm Calm - N/A   Clear
10:55 PM 64.4 °F - 64.4 °F 100% 30.15 in 7.0 mi SSW 4.6 mph - N/A   Clear
11:15 PM 66.2 °F - 64.4 °F 94% 30.15 in 10.0 mi West 4.6 mph - N/A   Clear
11:35 PM 66.2 °F - 64.4 °F 94% 30.15 in 10.0 mi Calm Calm - N/A   Clear